• In France
  • List of Countries
  • For 7 days
  • Water Temperature
  • Satellite Maps
  • Weather Map
  • Weather Widgets
  • user-avatar
    Login

    Hourly Weather Man

    Today, 20 August, Monday

    Time Temperature Precipitation Wind Pressure Humidity
    00:00 +23°C° 0.1 mm 1 mps 728 mmHg 98%
    01:00 +23°C° 0.1 mm 1 mps 728 mmHg 98%
    02:00 +23°C° 0.1 mm 1 mps 727 mmHg 98%
    03:00 +23°C° 0.1 mm 1 mps 727 mmHg 98%
    04:00 +23°C° 0.1 mm 1 mps 728 mmHg 98%
    05:00 +23°C° 0.1 mm 1 mps 728 mmHg 98%
    06:00 +23°C° 0.1 mm 1 mps 728 mmHg 96%
    07:00 +24°C° 0.1 mm 1 mps 728 mmHg 95%
    08:00 +24°C° 0.1 mm 1 mps 729 mmHg 94%
    09:00 +25°C° 0.1 mm 2 mps 729 mmHg 89%
    10:00 +26°C° 0.1 mm 2 mps 728 mmHg 85%
    11:00 +27°C° 0.1 mm 2 mps 728 mmHg 80%
    12:00 +27°C° 0.2 mm 2 mps 728 mmHg 79%
    13:00 +28°C° 0.2 mm 2 mps 727 mmHg 77%
    14:00 +28°C° 0.2 mm 2 mps 726 mmHg 76%
    15:00 +27°C° 0.5 mm 2 mps 726 mmHg 81%
    16:00 +27°C° 0.5 mm 2 mps 726 mmHg 86%
    17:00 +26°C° 0.5 mm 2 mps 726 mmHg 92%
    18:00 +25°C° 0.5 mm 1 mps 727 mmHg 94%
    19:00 +24°C° 0.5 mm 1 mps 727 mmHg 96%
    20:00 +23°C° 0.5 mm 1 mps 728 mmHg 98%
    21:00 +23°C° 0.1 mm 1 mps 728 mmHg 98%
    22:00 +23°C° 0.1 mm 1 mps 728 mmHg 98%
    23:00 +23°C° 0.1 mm 1 mps 729 mmHg 98%

    Tomorrow, 21 August, Tuesday

    Time Temperature Precipitation Wind Pressure Humidity
    00:00 +23°C° 0.1 mm 1 mps 728 mmHg 98%
    01:00 +23°C° 0.1 mm 1 mps 728 mmHg 99%
    02:00 +23°C° 0.1 mm 1 mps 727 mmHg 99%
    03:00 +23°C° 0.3 mm 1 mps 727 mmHg 99%
    04:00 +23°C° 0.3 mm 1 mps 727 mmHg 99%
    05:00 +22°C° 0.3 mm 1 mps 727 mmHg 99%
    06:00 +23°C° 0.1 mm 1 mps 728 mmHg 97%
    07:00 +23°C° 0.1 mm 1 mps 728 mmHg 96%
    08:00 +24°C° 0.1 mm 1 mps 729 mmHg 95%
    09:00 +25°C° 0.1 mm 1 mps 729 mmHg 89%
    10:00 +26°C° 0.1 mm 2 mps 729 mmHg 84%
    11:00 +27°C° 0.1 mm 2 mps 729 mmHg 79%
    12:00 +27°C° 0.3 mm 2 mps 728 mmHg 76%
    13:00 +28°C° 0.3 mm 2 mps 728 mmHg 74%
    14:00 +29°C° 0.3 mm 2 mps 727 mmHg 71%
    15:00 +28°C° 0.5 mm 2 mps 727 mmHg 77%
    16:00 +27°C° 0.5 mm 1 mps 726 mmHg 83%
    17:00 +26°C° 0.5 mm 1 mps 726 mmHg 89%
    18:00 +25°C° 0 mm 1 mps 727 mmHg 92%
    19:00 +24°C° 0 mm 1 mps 727 mmHg 94%
    20:00 +24°C° 0 mm 1 mps 728 mmHg 96%
    21:00 +24°C° 0 mm 1 mps 728 mmHg 97%
    22:00 +23°C° 0 mm 1 mps 728 mmHg 97%
    23:00 +23°C° 0 mm 1 mps 728 mmHg 98%

    Day after tomorrow, 22 August, Wednesday

    Time Temperature Precipitation Wind Pressure Humidity
    00:00 +23°C° 0 mm 1 mps 728 mmHg 98%
    01:00 +23°C° 0 mm 1 mps 727 mmHg 98%
    02:00 +22°C° 0 mm 1 mps 727 mmHg 99%
    03:00 +22°C° 0 mm 1 mps 727 mmHg 98%
    04:00 +22°C° 0 mm 1 mps 727 mmHg 98%
    05:00 +22°C° 0 mm 1 mps 727 mmHg 98%
    06:00 +23°C° 0 mm 1 mps 727 mmHg 97%
    07:00 +23°C° 0 mm 1 mps 728 mmHg 95%
    08:00 +24°C° 0 mm 1 mps 728 mmHg 93%
    09:00 +25°C° 0.1 mm 1 mps 728 mmHg 87%
    10:00 +26°C° 0.1 mm 1 mps 728 mmHg 81%
    11:00 +28°C° 0.1 mm 1 mps 728 mmHg 76%
    12:00 +29°C° 0.3 mm 1 mps 727 mmHg 73%
    13:00 +30°C° 0.3 mm 1 mps 726 mmHg 70%
    14:00 +31°C° 0.3 mm 2 mps 725 mmHg 67%
    15:00 +29°C° 1.3 mm 1 mps 725 mmHg 75%
    16:00 +28°C° 1.3 mm 1 mps 725 mmHg 83%
    17:00 +27°C° 1.3 mm 1 mps 725 mmHg 91%
    18:00 +26°C° 1.6 mm 1 mps 726 mmHg 93%
    19:00 +25°C° 1.6 mm 1 mps 727 mmHg 95%
    20:00 +24°C° 1.6 mm 1 mps 727 mmHg 97%
    21:00 +23°C° 0.7 mm 1 mps 727 mmHg 98%
    22:00 +23°C° 0.7 mm 1 mps 728 mmHg 98%
    23:00 +23°C° 0.7 mm 1 mps 728 mmHg 98%

    23 August, Thursday

    Time Temperature Precipitation Wind Pressure Humidity
    00:00 +23°C° 0.3 mm 1 mps 727 mmHg 99%
    01:00 +23°C° 0.3 mm 1 mps 726 mmHg 99%
    02:00 +23°C° 0.3 mm 1 mps 726 mmHg 99%
    03:00 +23°C° 0.4 mm 1 mps 726 mmHg 99%
    04:00 +23°C° 0.4 mm 1 mps 726 mmHg 99%
    05:00 +23°C° 0.4 mm 1 mps 726 mmHg 99%
    06:00 +23°C° 1.3 mm 1 mps 727 mmHg 98%
    07:00 +24°C° 1.3 mm 1 mps 727 mmHg 97%
    08:00 +24°C° 1.3 mm 1 mps 728 mmHg 96%
    09:00 +24°C° 0.6 mm 1 mps 728 mmHg 95%
    10:00 +25°C° 0.6 mm 1 mps 727 mmHg 94%
    11:00 +25°C° 0.6 mm 1 mps 727 mmHg 93%
    12:00 +27°C° 0.2 mm 1 mps 726 mmHg 84%
    13:00 +28°C° 0.2 mm 1 mps 725 mmHg 76%
    14:00 +30°C° 0.2 mm 2 mps 725 mmHg 67%
    15:00 +29°C° 0.9 mm 2 mps 725 mmHg 75%
    16:00 +28°C° 0.9 mm 1 mps 725 mmHg 82%
    17:00 +27°C° 0.9 mm 1 mps 725 mmHg 89%
    18:00 +26°C° 2.1 mm 1 mps 726 mmHg 92%
    19:00 +25°C° 2.1 mm 1 mps 726 mmHg 95%
    20:00 +24°C° 2.1 mm 1 mps 727 mmHg 97%
    21:00 +24°C° 1 mm 1 mps 727 mmHg 98%
    22:00 +24°C° 1 mm 1 mps 727 mmHg 98%
    23:00 +23°C° 1 mm 1 mps 727 mmHg 98%

    24 August, Friday

    Time Temperature Precipitation Wind Pressure Humidity
    00:00 +23°C° 0.5 mm 1 mps 727 mmHg 99%
    01:00 +23°C° 0.5 mm 1 mps 726 mmHg 99%
    02:00 +23°C° 0.5 mm 1 mps 726 mmHg 99%
    03:00 +23°C° 0.3 mm 1 mps 726 mmHg 99%
    04:00 +23°C° 0.3 mm 1 mps 726 mmHg 99%
    05:00 +23°C° 0.3 mm 1 mps 726 mmHg 99%
    06:00 +23°C° 0.3 mm 1 mps 726 mmHg 98%
    07:00 +24°C° 0.3 mm 1 mps 727 mmHg 98%
    08:00 +24°C° 0.3 mm 1 mps 727 mmHg 98%
    09:00 +24°C° 0.3 mm 1 mps 727 mmHg 96%
    10:00 +25°C° 0.3 mm 1 mps 727 mmHg 95%
    11:00 +25°C° 0.3 mm 1 mps 727 mmHg 93%
    12:00 +26°C° 0.3 mm 1 mps 726 mmHg 89%
    13:00 +27°C° 0.3 mm 1 mps 725 mmHg 85%
    14:00 +28°C° 0.3 mm 1 mps 725 mmHg 82%
    15:00 +27°C° 0.8 mm 1 mps 724 mmHg 85%
    16:00 +27°C° 0.8 mm 1 mps 724 mmHg 87%
    17:00 +26°C° 0.8 mm 1 mps 724 mmHg 90%
    18:00 +25°C° 1.6 mm 1 mps 725 mmHg 93%
    19:00 +25°C° 1.6 mm 1 mps 726 mmHg 95%
    20:00 +24°C° 1.6 mm 2 mps 726 mmHg 97%
    21:00 +24°C° 1.3 mm 2 mps 726 mmHg 98%
    22:00 +24°C° 1.3 mm 2 mps 726 mmHg 98%
    23:00 +23°C° 1.3 mm 2 mps 726 mmHg 99%

    25 August, Saturday

    Time Temperature Precipitation Wind Pressure Humidity
    00:00 +23°C° 1.3 mm 1 mps 726 mmHg 99%
    01:00 +23°C° 1.3 mm 1 mps 726 mmHg 99%
    02:00 +23°C° 1.3 mm 1 mps 725 mmHg 99%
    03:00 +23°C° 0.7 mm 1 mps 726 mmHg 99%
    04:00 +23°C° 0.7 mm 1 mps 726 mmHg 99%
    05:00 +23°C° 0.7 mm 1 mps 726 mmHg 99%
    06:00 +23°C° 0.6 mm 1 mps 727 mmHg 99%
    07:00 +23°C° 0.6 mm 1 mps 727 mmHg 98%
    08:00 +24°C° 0.6 mm 1 mps 727 mmHg 98%
    09:00 +24°C° 0.5 mm 1 mps 727 mmHg 98%
    10:00 +24°C° 0.5 mm 1 mps 727 mmHg 97%
    11:00 +24°C° 0.5 mm 2 mps 727 mmHg 97%
    12:00 +25°C° 0.6 mm 2 mps 726 mmHg 95%
    13:00 +25°C° 0.6 mm 2 mps 725 mmHg 94%
    14:00 +26°C° 0.6 mm 2 mps 725 mmHg 93%
    15:00 +25°C° 1.1 mm 2 mps 725 mmHg 94%
    16:00 +24°C° 1.1 mm 2 mps 725 mmHg 96%
    17:00 +24°C° 1.1 mm 2 mps 725 mmHg 98%
    18:00 +23°C° 0.2 mm 1 mps 726 mmHg 98%
    19:00 +23°C° 0.2 mm 1 mps 726 mmHg 98%
    20:00 +23°C° 0.2 mm 1 mps 727 mmHg 99%
    21:00 +23°C° 0.2 mm 1 mps 727 mmHg 99%
    22:00 +23°C° 0.2 mm 1 mps 727 mmHg 99%
    23:00 +23°C° 0.2 mm 1 mps 727 mmHg 99%
    Show more